Theta_e
312 312 316 320 322 322 324 324 324 323 323 323 322 324 324 327 326 336 340 329 323 338 331 332 340 338 335 335 335 338 338 335 331 329 328 326 325 323 320 318 320 327 328 331 329 328 327 326 325
315 319 318 320 323 323 323 325 323 323 323 322 322 323 324 326 330 338 343 337 324 323 328 335 338 340 336 335 335 335 337 337 333 330 328 327 326 322 318 320 329 332 331 330 324 324 324 320 321
321 320 320 324 324 323 324 324 323 323 322 322 321 323 325 328 332 339 332 321 323 323 325 331 336 340 336 335 335 336 337 338 336 331 328 328 326 321 319 325 330 331 331 323 319 316 317 318 322
319 319 320 322 322 323 323 324 323 322 322 322 321 322 325 327 329 336 333 325 324 335 330 326 330 336 337 335 334 333 334 336 337 329 325 331 326 321 321 325 330 330 329 328 319 311 314 317 322
319 320 322 322 323 323 324 322 322 321 322 323 323 322 325 330 333 325 323 324 324 331 327 324 325 331 335 335 333 332 332 333 334 331 325 330 329 324 327 330 331 330 329 330 314 312 312 316 322
319 319 321 322 323 324 323 321 322 321 321 322 324 325 325 332 328 321 319 322 322 323 324 323 323 325 331 335 338 335 332 332 330 328 326 326 329 328 330 331 331 328 330 325 315 312 311 313 321
319 321 321 322 323 324 324 321 321 322 322 322 323 324 327 332 332 323 320 321 322 323 324 323 323 323 326 331 335 335 332 331 329 326 325 324 330 330 328 331 331 327 325 315 312 310 310 311 319
319 320 321 321 322 323 324 321 321 321 321 323 324 325 326 333 331 326 323 322 323 323 323 325 327 331 332 331 333 334 333 331 329 327 328 325 328 329 329 328 328 328 321 311 309 309 309 309 315
319 320 320 321 323 323 323 321 321 321 320 321 321 323 328 334 328 332 333 331 330 326 325 327 331 336 336 333 332 332 331 331 330 326 328 327 328 328 329 327 328 326 314 311 307 307 307 308 312
320 321 321 322 323 323 322 321 320 321 321 321 321 322 325 329 331 332 333 333 333 334 332 332 332 337 334 334 332 331 331 330 329 329 329 326 329 330 329 326 326 322 313 307 306 306 307 308 309
319 321 321 322 322 322 321 320 320 320 320 321 321 321 322 329 331 331 331 331 332 335 333 330 322 327 335 332 333 331 329 328 328 327 326 327 326 326 325 326 327 318 309 307 306 306 306 306 316
320 320 321 321 321 321 321 320 320 320 320 320 320 321 321 321 324 329 329 331 331 333 333 329 323 327 328 333 332 331 329 328 329 328 327 327 324 327 329 325 327 316 311 307 306 306 307 308 318
321 321 321 320 320 320 319 320 319 320 320 320 320 319 320 320 322 323 328 330 331 332 331 326 324 326 327 330 329 330 330 329 328 328 328 326 327 328 326 327 326 316 310 309 308 316 313 310 318
321 321 321 321 320 320 320 320 320 320 320 320 319 319 319 319 322 325 329 331 331 331 330 327 328 326 327 328 328 328 329 329 329 330 329 328 327 327 324 325 324 316 312 310 318 318 317 316 318
320 321 321 321 320 321 321 321 321 321 321 321 320 319 320 321 324 327 329 332 331 330 330 329 328 326 327 327 327 327 329 328 329 329 329 328 327 327 323 324 322 316 314 317 321 319 318 318 318
320 321 321 321 321 322 322 323 323 322 322 322 321 319 321 323 326 328 329 332 331 329 329 328 328 325 325 326 326 326 327 327 327 327 327 327 328 326 324 321 319 318 318 321 321 319 317 316 318
320 321 322 322 322 322 323 323 323 322 322 320 320 320 323 325 328 329 330 331 330 329 329 326 327 324 324 324 324 324 324 324 324 325 325 328 328 325 320 321 320 321 321 322 321 317 316 316 316
320 321 321 322 322 322 323 323 322 322 322 322 322 322 323 326 328 330 330 331 330 329 329 325 326 324 324 324 324 324 325 325 326 326 327 325 326 323 322 319 318 322 321 321 320 316 316 315 315
318 319 320 321 322 322 324 324 323 323 323 323 323 323 323 324 328 330 330 330 329 329 328 325 325 323 324 323 323 323 323 323 323 323 323 322 323 321 316 319 319 318 322 317 316 316 316 314 314
316 317 318 319 321 321 322 323 322 322 323 323 322 321 323 323 327 330 331 330 329 329 327 323 323 323 323 323 323 322 321 320 320 318 318 320 318 315 315 319 318 318 314 312 315 315 314 314 315
317 318 318 319 321 321 322 322 322 322 322 323 323 322 321 324 327 330 331 331 330 329 327 324 323 323 322 322 321 321 319 319 320 320 320 320 317 315 314 314 314 313 314 315 312 314 315 313 314
317 318 318 319 320 323 321 323 324 323 324 325 324 323 322 322 326 329 331 331 329 329 326 324 323 322 322 322 321 320 318 316 315 316 316 314 313 314 315 313 313 312 316 315 311 314 314 316 316
316 317 318 320 321 321 320 322 321 322 323 324 324 323 321 323 323 330 331 332 330 329 326 324 325 322 323 322 320 317 315 315 315 314 313 313 313 315 315 316 315 315 316 314 316 318 319 319 319
317 317 318 319 320 323 321 322 322 322 324 325 324 323 324 324 324 329 331 332 331 329 327 324 322 322 322 322 321 318 317 317 315 312 313 313 312 313 314 317 317 315 315 317 318 319 319 320 321
316 318 320 321 323 324 321 322 323 323 324 325 325 324 323 324 324 327 333 332 331 331 328 324 323 323 322 321 321 321 320 318 317 313 311 310 312 312 313 314 315 318 317 319 320 319 319 320 318
316 318 319 320 327 328 324 326 323 324 324 323 323 323 323 323 325 327 332 332 331 331 328 325 324 324 322 321 321 320 321 319 317 314 312 311 312 311 312 313 315 315 319 319 319 320 319 319 315
317 317 317 319 320 323 323 325 325 324 323 324 324 323 323 324 325 326 331 332 331 331 329 326 324 322 322 320 321 321 321 321 318 314 313 311 312 312 312 314 313 318 318 318 318 318 317 316 314
314 317 318 319 319 318 318 321 324 325 325 324 324 324 323 323 324 325 328 333 331 331 329 326 323 322 323 323 321 321 321 321 321 318 313 313 312 313 314 315 315 317 318 319 318 318 316 316 316
311 311 312 313 316 318 321 323 324 325 324 325 325 325 324 324 324 325 327 333 332 331 330 327 324 323 324 322 322 322 321 322 321 320 318 316 314 315 315 316 317 319 319 319 320 320 318 317 318
314 312 311 314 316 320 320 320 320 321 323 324 324 324 324 324 325 325 327 333 332 331 330 328 325 323 322 324 322 322 321 322 322 321 320 320 320 316 316 316 317 318 320 319 319 320 319 319 318
Wind_Speed
8 6 1 8 6 7 17 20 2 7 1 5 5 5 12 14 10 3 6 5 5 6 7 10 7 17 16 15 15 17 18 19 19 19 19 19 19 19 17 15 16 18 21 23 22 20 20 21 20
5 5 8 9 8 11 11 5 7 1 11 8 3 7 7 9 8 13 7 3 7 6 5 9 6 13 18 14 14 15 18 20 22 22 22 22 21 21 18 17 18 19 21 21 18 18 20 20 19
9 7 10 6 12 13 16 7 5 6 4 5 6 9 7 3 7 5 2 4 4 8 5 8 10 6 18 16 15 15 18 20 23 25 24 25 24 23 21 20 20 19 18 18 18 19 20 21 22
5 9 11 8 16 19 22 7 7 5 8 4 11 10 8 7 3 5 9 5 3 3 7 9 11 9 15 18 18 19 18 19 21 10 20 28 27 25 23 22 23 21 18 18 18 19 21 22 22
9 11 11 16 18 22 19 1 5 6 11 4 5 12 5 10 11 6 9 9 4 8 10 10 11 14 15 17 22 23 23 22 27 30 43 13 26 26 26 26 24 22 18 19 17 21 22 24 27
12 15 12 14 20 20 2 2 2 4 11 9 4 12 11 11 9 5 9 9 8 10 12 11 12 16 17 18 20 21 22 27 22 25 20 18 24 23 21 25 23 21 19 17 17 22 24 26 30
15 11 17 19 19 19 17 11 9 7 9 13 15 12 2 12 9 9 9 10 11 10 11 14 12 17 16 17 18 17 16 24 16 12 13 21 24 24 21 26 24 22 19 18 20 22 24 28 32
21 12 20 17 16 19 14 3 5 8 10 4 3 4 4 13 11 7 8 8 12 10 11 11 10 14 12 16 17 18 18 19 19 17 21 22 25 23 30 29 24 23 18 21 22 23 24 28 32
21 13 15 20 19 19 8 2 6 7 10 14 12 9 7 11 9 6 8 8 10 13 11 11 9 11 10 12 15 18 16 15 15 16 16 20 22 33 34 27 28 25 21 23 23 25 25 28 31
18 14 22 20 19 17 14 8 12 14 19 20 17 19 15 13 10 9 10 10 13 14 11 9 10 12 14 17 14 16 18 19 15 14 23 11 0 31 33 29 28 22 23 24 24 24 25 28 30
25 20 21 25 27 27 12 16 18 15 17 17 15 17 9 12 10 11 13 14 13 13 11 13 8 12 15 18 18 16 19 20 16 15 22 11 8 26 32 32 30 27 25 26 26 26 27 30 34
24 28 29 26 26 24 20 18 19 23 20 20 16 17 17 13 12 16 16 14 12 17 16 14 9 10 17 19 15 22 18 17 20 20 25 14 15 32 36 33 33 30 29 29 28 28 25 34 29
24 24 29 29 28 27 23 21 22 22 24 23 19 23 19 16 16 20 15 14 13 16 20 15 11 11 13 19 22 17 15 18 20 24 27 21 21 38 33 32 32 32 31 30 30 24 22 31 21
29 25 26 30 27 25 25 22 23 25 24 27 25 24 24 26 18 17 15 14 13 13 19 14 10 10 12 17 17 16 15 21 16 23 23 26 29 39 37 34 33 33 32 31 26 24 22 21 18
26 22 22 22 24 20 26 22 23 26 27 29 26 22 20 21 15 17 16 16 14 12 19 14 10 10 11 14 14 15 16 17 25 25 25 31 26 42 43 39 38 36 33 31 20 23 23 20 19
16 17 19 21 21 25 26 22 21 26 30 29 25 23 20 21 15 15 16 15 14 14 19 16 14 11 13 12 11 12 17 18 21 22 23 25 34 51 48 43 41 34 30 26 24 24 23 20 19
17 19 23 22 19 22 23 20 15 23 19 7 12 18 21 13 11 15 17 16 15 15 19 17 13 11 11 11 12 11 15 17 19 21 21 36 44 51 48 43 39 33 32 26 28 26 23 21 18
20 22 24 23 19 21 25 19 15 24 21 15 15 18 19 15 18 18 17 18 16 16 20 15 13 11 8 8 8 7 9 14 26 29 37 49 56 54 50 48 42 35 34 31 30 27 23 22 17
22 24 25 22 25 22 18 14 13 15 19 15 21 22 18 16 19 22 20 20 18 20 22 16 15 13 11 12 12 11 18 27 34 39 44 45 52 53 50 42 37 32 32 28 28 26 21 23 18
25 22 27 22 28 22 20 17 16 17 19 20 21 20 22 23 20 24 24 22 21 22 19 16 16 17 16 15 16 18 23 27 32 32 39 53 50 47 47 37 34 32 28 27 26 24 24 24 24
23 24 18 23 26 25 22 24 16 19 21 25 28 24 23 22 25 28 27 25 23 24 20 16 18 18 18 22 26 31 33 33 33 32 25 31 36 40 40 41 34 31 34 36 30 29 26 28 27
22 18 20 20 20 18 21 16 17 17 17 21 29 27 23 20 22 31 29 27 26 22 19 17 21 22 21 24 28 35 42 42 37 34 36 37 37 36 30 31 30 33 35 30 28 26 25 22 22
21 13 14 19 19 22 25 14 14 16 18 17 13 18 20 15 18 31 31 28 24 24 22 20 24 26 24 25 35 44 42 36 34 39 34 35 33 31 34 33 38 40 33 32 29 26 24 23 21
15 8 14 17 14 17 22 19 14 16 18 17 10 17 25 27 22 28 31 27 26 24 25 25 27 30 27 29 36 40 38 36 37 41 37 37 37 41 42 37 32 35 32 32 29 26 22 25 23
14 12 9 5 6 12 19 16 14 17 20 12 12 9 9 25 24 25 34 31 29 31 27 29 28 31 30 31 35 38 39 40 39 43 40 38 41 45 43 38 33 29 31 29 25 30 26 24 24
17 17 9 12 7 5 16 11 14 15 11 7 3 6 6 19 23 26 33 32 32 33 29 31 31 34 32 35 33 37 39 41 42 46 44 46 48 51 43 40 36 35 29 28 29 28 30 27 25
17 18 16 16 18 4 9 18 10 13 8 6 7 17 11 10 13 20 30 35 33 34 33 31 33 32 34 35 35 35 38 43 41 49 47 52 52 47 46 44 40 32 31 31 31 31 29 28 29
17 15 14 11 16 16 12 11 9 16 13 9 7 5 9 12 22 26 28 36 35 34 33 33 31 32 34 36 37 36 36 37 37 43 54 51 50 49 47 43 40 36 32 32 31 32 31 30 31
12 16 13 11 13 10 8 1 5 10 14 9 6 11 8 11 14 26 27 36 34 33 32 32 29 35 35 35 38 39 37 37 37 42 46 50 52 53 48 45 43 35 36 34 33 34 33 33 32
17 18 17 8 12 8 11 7 12 3 12 7 6 10 6 4 12 15 27 35 34 36 33 33 31 33 34 36 36 38 39 37 38 40 43 47 47 50 53 53 47 38 34 36 35 36 36 34 35
Wind_Direction
197 217 229 267 250 231 261 253 141 59 227 94 24 327 324 327 323 39 146 37 33 134 304 311 250 221 219 218 214 212 214 211 209 207 202 196 187 175 173 168 162 155 150 145 146 152 151 155 153
170 242 246 271 243 274 269 154 111 79 61 65 276 242 250 265 45 114 119 50 338 348 312 293 298 231 226 221 217 223 225 221 216 212 206 201 192 181 173 164 159 159 154 150 153 155 157 149 142
176 213 259 229 242 248 276 42 35 42 81 266 258 200 288 12 61 82 184 296 310 310 311 274 278 256 230 230 226 225 224 225 220 213 210 204 194 185 174 166 167 164 158 158 159 157 150 139 136
189 215 248 258 261 279 286 330 68 340 275 206 267 271 188 191 112 166 248 272 257 245 292 277 275 255 227 229 232 233 224 218 217 45 22 209 193 183 177 173 171 168 166 160 164 151 147 137 133
234 256 245 257 263 259 264 174 30 315 292 194 238 268 282 137 160 219 256 261 237 238 255 281 269 253 241 228 231 234 231 236 247 251 286 293 185 181 180 176 177 169 167 163 160 151 145 140 135
224 228 258 260 262 278 115 162 225 280 279 279 203 275 288 174 175 214 264 270 265 246 262 270 264 254 245 239 236 234 226 226 241 262 255 298 174 189 181 182 177 171 174 168 156 152 146 143 141
247 252 253 264 277 295 301 178 204 229 267 283 240 238 189 160 164 231 259 277 274 256 249 274 256 254 245 238 236 231 229 233 251 221 225 245 207 191 186 186 184 183 176 168 162 156 151 147 147
238 251 262 267 276 281 287 17 161 211 257 253 292 250 301 143 201 225 262 280 276 262 260 254 261 245 248 238 229 224 226 240 227 220 229 219 197 208 191 184 194 186 171 164 160 158 153 149 150
242 247 255 259 263 270 357 51 230 218 268 278 269 236 218 194 228 191 235 254 269 280 259 255 226 239 228 233 222 222 223 219 221 217 211 192 232 217 191 187 190 180 170 162 159 157 153 151 148
234 245 250 256 274 291 314 281 255 254 223 227 232 230 226 204 190 201 214 247 275 279 275 246 214 211 230 221 224 224 214 217 201 203 197 207 247 199 178 179 183 174 163 160 157 155 152 151 147
240 239 256 272 287 304 279 286 288 228 252 266 265 278 259 202 214 225 242 249 252 260 231 256 245 226 211 218 223 212 202 203 211 213 204 185 221 189 175 182 176 167 165 158 155 155 155 149 143
250 247 252 263 276 286 287 277 271 275 275 272 280 271 275 257 253 240 245 246 241 236 242 254 248 227 220 210 208 216 217 218 226 195 210 217 165 172 179 183 171 167 165 160 155 152 152 150 136
253 250 258 266 261 269 265 269 273 269 275 281 273 274 274 260 250 262 242 246 233 232 251 256 244 229 216 214 217 223 215 219 217 217 213 204 194 176 177 181 171 169 165 158 147 144 159 156 136
265 263 263 263 265 261 273 268 265 260 264 263 252 256 257 252 238 244 232 231 221 233 258 268 233 229 220 206 218 218 219 218 218 206 206 189 189 179 174 181 175 170 164 155 144 167 154 161 145
274 275 273 266 266 266 268 267 261 265 259 254 254 249 248 251 249 223 229 216 217 216 247 263 226 225 221 223 220 221 214 218 213 211 201 195 204 192 178 176 177 171 165 152 152 164 159 161 166
259 263 260 255 253 255 247 256 257 254 256 249 236 235 241 236 226 217 216 211 205 202 235 250 220 218 213 215 228 213 211 223 227 218 211 211 201 199 176 171 174 166 161 154 171 162 160 163 162
256 254 256 256 244 261 260 252 264 258 275 277 240 223 240 213 212 213 207 202 200 198 229 248 209 216 213 215 230 226 216 218 230 227 211 200 195 176 168 167 165 166 164 168 173 164 162 156 166
240 246 247 256 259 259 266 233 231 254 259 221 233 246 244 208 199 206 203 196 193 196 222 229 197 203 201 204 211 225 218 211 208 207 192 174 180 173 167 165 166 167 173 172 173 163 161 161 168
261 271 273 278 276 256 261 283 243 262 277 261 212 220 231 240 200 191 195 194 187 204 218 214 195 201 193 189 194 195 191 189 182 177 172 164 161 165 165 158 159 173 176 171 168 159 172 175 162
243 249 261 274 280 286 284 272 263 267 268 265 256 240 216 222 195 176 186 188 189 207 220 209 193 188 184 190 189 182 173 171 172 154 155 163 161 160 158 166 163 175 164 165 170 172 186 181 175
243 249 252 255 286 285 282 270 269 266 262 259 260 251 246 215 187 171 180 190 190 209 219 209 189 181 180 186 177 172 161 157 154 161 169 170 170 163 168 166 176 173 173 181 183 190 188 184 183
250 238 258 276 272 277 273 271 255 255 246 244 226 225 233 231 193 175 178 188 194 200 219 208 185 180 181 189 182 173 161 158 160 162 162 162 165 168 175 175 178 186 189 202 199 195 183 194 192
252 225 223 253 266 268 266 261 259 271 269 263 259 200 210 211 233 172 179 190 198 192 202 202 188 184 185 188 178 173 169 169 170 168 165 175 176 176 175 185 189 191 204 203 193 190 192 192 206
268 256 213 248 236 256 259 258 254 255 255 249 227 208 195 201 206 175 177 184 191 195 201 199 189 183 188 191 189 188 184 180 176 171 179 184 191 180 184 190 190 198 201 201 206 205 208 209 204
210 231 225 242 234 254 248 248 234 245 251 277 193 185 198 187 183 175 168 175 185 192 201 194 193 189 193 192 196 198 198 195 188 183 187 190 187 188 193 199 195 196 201 205 207 212 220 220 225
211 212 208 228 229 327 300 258 243 238 247 263 155 154 201 176 178 179 175 177 185 192 201 192 192 194 193 193 198 201 202 203 201 195 191 191 193 195 201 211 212 203 211 205 210 210 218 232 238
204 213 231 271 291 238 266 301 344 280 193 197 246 211 164 169 179 186 180 178 185 193 196 207 193 199 199 198 201 203 205 207 206 200 198 198 201 206 203 208 208 211 218 222 217 221 228 234 240
241 211 219 217 253 272 258 263 232 251 215 203 183 184 207 220 203 189 185 178 184 193 199 210 200 199 202 202 201 204 206 209 210 209 206 208 211 211 208 209 214 219 221 224 226 228 233 238 241
204 240 244 265 246 252 267 305 273 7 341 182 146 66 21 321 281 180 182 180 185 188 202 209 207 196 200 205 203 204 207 209 208 208 211 216 213 211 213 212 213 221 224 228 229 233 236 238 241
211 212 227 229 245 243 251 261 298 65 271 285 90 116 112 293 282 202 178 175 176 188 196 206 208 203 204 202 205 208 211 212 213 213 217 220 218 214 218 216 214 216 231 234 235 234 238 240 243